Location: Unspecified
(38.5954°N, 0.0000°E)
Time: 20:55:47
(UTC+00:00)

CZ-6A DEB - Visible Passes

Search period start: 04 April 2026 00:00
Search period end: 14 April 2026 00:00
Orbit: 793 x 881 km, 89.1° (Epoch: 29 March)

Date Brightness Start Highest point End Pass type
(mag) Time Alt. Az. Time Alt. Az. Time Alt. Az.
4 Apr ? 19:21:08 10° NNW 19:25:25 25° W 19:29:46 10° SW visible
5 Apr ? 05:05:03 10° ESE 05:07:57 15° ENE 05:10:49 10° NE visible
5 Apr ? 19:04:52 10° NNW 19:09:33 32° W 19:14:19 10° SW visible
6 Apr ? 04:50:37 10° E 04:52:09 11° ENE 04:53:40 10° NE visible
6 Apr ? 18:48:40 10° NNW 18:53:40 41° W 18:58:44 10° SSW visible
10 Apr ? 19:28:32 10° NW 19:30:52 13° WNW 19:33:12 10° W visible
11 Apr ? 19:11:43 10° NW 19:15:04 17° WNW 19:18:26 10° WSW visible
12 Apr ? 04:53:29 10° SE 04:57:32 23° ENE 05:01:35 10° NNE visible
12 Apr ? 18:55:13 10° NNW 18:59:14 22° WNW 19:03:18 10° SW visible
13 Apr ? 04:38:16 10° ESE 04:41:42 18° ENE 04:45:07 10° NE visible
